RYR8RQ LIMJ-EDFH

Flight info

Callsign RYR8RQ
Flight time N/A
Altitude 34000
Route LAGEN DCT DESIP DCT ZUE DCT SONOM T163 KOVAN T844 UMDAS DCT RID DCT OLIVI OLIVI4B
Aircraft B738/M-SDE2E3FGHIRWXY/LB1

Departure

Time 2026-05-04 19:49
Airport Genoa Cristoforo Colombo Airport (LIMJ)

Arrival

Time N/A
Airport Frankfurt-Hahn Airport (EDFH)
Time Latitude Longitude Altitude Speed Heading
2026-05-04 19:15 44.41406 8.85012 31 ft 0 kts 60°
2026-05-04 19:44 44.41406 8.85016 30 ft 0 kts 96°
2026-05-04 19:44 44.41385 8.85024 30 ft 6 kts 183°
2026-05-04 19:44 44.41337 8.85047 28 ft 10 kts 116°
2026-05-04 19:45 44.41316 8.85150 26 ft 11 kts 106°
2026-05-04 19:45 44.41285 8.85257 24 ft 12 kts 133°
2026-05-04 19:45 44.41202 8.85274 23 ft 12 kts 198°
2026-05-04 19:45 44.41115 8.85241 24 ft 14 kts 194°
2026-05-04 19:46 44.41033 8.85176 23 ft 11 kts 195°
2026-05-04 19:46 44.40983 8.85269 20 ft 17 kts 105°
2026-05-04 19:46 44.40945 8.85456 19 ft 20 kts 105°
2026-05-04 19:46 44.40908 8.85641 19 ft 19 kts 105°
2026-05-04 19:47 44.40876 8.85818 19 ft 18 kts 105°
2026-05-04 19:47 44.40863 8.85994 19 ft 17 kts 64°
2026-05-04 19:47 44.40841 8.86058 19 ft 6 kts 222°
2026-05-04 19:47 44.40839 8.86004 19 ft 5 kts 287°
2026-05-04 19:48 44.40869 8.85853 19 ft 41 kts 285°
2026-05-04 19:48 44.41011 8.85127 23 ft 110 kts 285°
2026-05-04 19:48 44.41264 8.83833 20 ft 163 kts 285°
2026-05-04 19:48 44.41586 8.82193 344 ft 181 kts 283°
2026-05-04 19:49 44.41925 8.80522 1077 ft 181 kts 282°
2026-05-04 19:49 44.42057 8.78795 1743 ft 181 kts 260°
2026-05-04 19:49 44.41643 8.77156 2083 ft 194 kts 230°
2026-05-04 19:49 44.40530 8.76051 2463 ft 206 kts 193°
2026-05-04 19:50 44.39141 8.75934 3218 ft 204 kts 172°
2026-05-04 19:50 44.37832 8.76457 4056 ft 197 kts 150°
2026-05-04 19:50 44.36738 8.77373 4803 ft 194 kts 146°
2026-05-04 19:50 44.35662 8.78248 5467 ft 196 kts 149°
2026-05-04 19:51 44.34499 8.79087 6109 ft 199 kts 152°
2026-05-04 19:51 44.33107 8.79532 6384 ft 228 kts 182°
2026-05-04 19:51 44.31622 8.78697 6704 ft 256 kts 219°
2026-05-04 19:51 44.30661 8.76681 7159 ft 277 kts 252°
2026-05-04 19:52 44.30609 8.74081 7731 ft 290 kts 284°
2026-05-04 19:52 44.31477 8.71550 8476 ft 295 kts 303°
2026-05-04 19:52 44.32666 8.69230 9225 ft 297 kts 303°
2026-05-04 19:52 44.33736 8.66919 9919 ft 299 kts 298°
2026-05-04 19:53 44.34712 8.64400 10464 ft 308 kts 294°
2026-05-04 19:53 44.35666 8.61582 10688 ft 330 kts 292°
2026-05-04 19:53 44.36691 8.58694 11210 ft 341 kts 298°
2026-05-04 19:53 44.38166 8.56086 11917 ft 349 kts 316°
2026-05-04 19:54 44.40154 8.54255 12751 ft 353 kts 334°
2026-05-04 19:54 44.42477 8.53248 13521 ft 357 kts 349°
2026-05-04 19:54 44.44935 8.53060 14199 ft 365 kts
2026-05-04 19:54 44.47411 8.53671 14914 ft 370 kts 15°
2026-05-04 19:55 44.49882 8.54782 15639 ft 373 kts 19°
2026-05-04 19:55 44.52322 8.56023 16328 ft 377 kts 20°
2026-05-04 19:55 44.54809 8.57303 16881 ft 386 kts 20°
2026-05-04 19:55 44.57336 8.58586 17585 ft 388 kts 19°
2026-05-04 19:56 44.59870 8.59854 18239 ft 393 kts 19°
2026-05-04 19:56 44.62429 8.61122 18860 ft 396 kts 19°
2026-05-04 19:56 44.65037 8.62409 19521 ft 399 kts 19°
2026-05-04 19:56 44.67642 8.63694 20104 ft 404 kts 19°
2026-05-04 19:57 44.70312 8.65013 20712 ft 407 kts 19°
2026-05-04 19:57 44.72974 8.66330 21331 ft 409 kts 19°
2026-05-04 19:57 44.75679 8.67671 21788 ft 416 kts 19°
2026-05-04 19:57 44.78395 8.69018 22443 ft 417 kts 19°
2026-05-04 19:58 44.81164 8.70394 22954 ft 421 kts 19°
2026-05-04 19:58 44.83914 8.71763 23445 ft 425 kts 19°
2026-05-04 19:58 44.86716 8.73159 23970 ft 428 kts 19°
2026-05-04 19:58 44.89491 8.74542 24453 ft 432 kts 18°
2026-05-04 19:59 44.92363 8.75976 24981 ft 434 kts 18°
2026-05-04 19:59 44.95178 8.77380 25491 ft 436 kts 18°
2026-05-04 19:59 44.97942 8.78763 26020 ft 437 kts 18°
2026-05-04 19:59 45.00830 8.80210 26597 ft 437 kts 18°
2026-05-04 20:00 45.03702 8.81648 27118 ft 438 kts 17°
2026-05-04 20:00 45.06558 8.83078 27444 ft 443 kts 18°
2026-05-04 20:00 45.09491 8.84558 27801 ft 448 kts 18°
2026-05-04 20:00 45.12611 8.86139 28152 ft 453 kts 18°
2026-05-04 20:01 45.15743 8.87720 28522 ft 457 kts 18°
2026-05-04 20:01 45.18870 8.89290 28923 ft 459 kts 17°
2026-05-04 20:01 45.21881 8.90802 29352 ft 461 kts 18°
2026-05-04 20:01 45.25014 8.92404 29851 ft 461 kts 18°
2026-05-04 20:02 45.28154 8.93999 30297 ft 462 kts 17°
2026-05-04 20:02 45.31298 8.95590 30814 ft 461 kts 17°
2026-05-04 20:02 45.34406 8.97164 31385 ft 458 kts 17°
2026-05-04 20:02 45.37543 8.98754 31915 ft 456 kts 17°
2026-05-04 20:03 45.40445 9.00227 32377 ft 454 kts 17°
2026-05-04 20:03 45.43470 9.01765 32885 ft 451 kts 17°
2026-05-04 20:03 45.46427 9.03271 33312 ft 451 kts 17°
2026-05-04 20:03 45.49405 9.04788 33709 ft 450 kts 17°
2026-05-04 20:04 45.52405 9.06320 34059 ft 450 kts 17°
2026-05-04 20:04 45.58490 9.09428 34086 ft 451 kts 17°
2026-05-04 20:05 45.64609 9.12048 34081 ft 443 kts
2026-05-04 20:05 45.70771 9.12180 34090 ft 436 kts 351°
2026-05-04 20:06 45.76858 9.11061 34096 ft 434 kts 348°
2026-05-04 20:06 45.82848 9.09907 34082 ft 435 kts 349°
2026-05-04 20:07 45.88910 9.08874 34085 ft 436 kts 350°
2026-05-04 20:07 45.95028 9.07904 34079 ft 436 kts 350°
2026-05-04 20:08 46.01121 9.06960 34089 ft 436 kts 351°
2026-05-04 20:08 46.07214 9.06016 34099 ft 435 kts 351°
2026-05-04 20:09 46.13323 9.05068 34083 ft 436 kts 351°
2026-05-04 20:09 46.19347 9.04131 34092 ft 435 kts 351°
2026-05-04 20:10 46.25465 9.03177 34073 ft 435 kts 351°
2026-05-04 20:10 46.31410 9.02247 34083 ft 435 kts 351°
2026-05-04 20:11 46.37127 9.01351 34096 ft 436 kts 351°
2026-05-04 20:11 46.42853 9.00453 34090 ft 436 kts 351°
2026-05-04 20:12 46.48885 8.99503 34065 ft 436 kts 351°
2026-05-04 20:12 46.55110 8.98522 34090 ft 436 kts 351°
2026-05-04 20:13 46.61494 8.97513 34074 ft 436 kts 351°
2026-05-04 20:13 46.67733 8.96526 34089 ft 435 kts 351°
2026-05-04 20:14 46.73769 8.95568 34055 ft 435 kts 351°
2026-05-04 20:14 46.79939 8.94586 34075 ft 435 kts 351°
2026-05-04 20:15 46.85860 8.93640 34067 ft 437 kts 351°
2026-05-04 20:15 46.91605 8.92722 34073 ft 436 kts 351°
2026-05-04 20:16 46.97387 8.91796 34069 ft 435 kts 351°
2026-05-04 20:16 47.03202 8.90864 34054 ft 435 kts 351°